This demonstration page uses our WeatherBlox Daily Observations layout. Learn more.

Left ArrowRight Arrow

39.92423, -83.80882

Hourly Observations for March 14, 2019

Temp ( °F °C ) Dew Point ( °F °C ) Humidity (%) Winds ( mph kmh ) Pressure ( in mb ) Visibility ( mi km ) Precip ( " mm )
12:56 am 00:56 Clear 55 12.8 39 3.9 55 55 SSE 9 15 29.93 1013 10 16.0934 0 0
1:56 am 01:56 Clear 56 13.3 38 3.3 51 51 SSE 12 19 29.9 1013 10 16.0934 0 0
2:56 am 02:56 Clear 57 13.9 39 3.9 51 51 S 12 19 29.88 1012 10 16.0934 0 0
3:56 am 03:56 Clear 58 14.4 39 3.9 50 50 S 10 17 29.88 1012 10 16.0934 0 0
4:56 am 04:56 Clear 60 15.6 40 4.4 47 47 S 14 22 29.85 1011 10 16.0934 0 0
5:56 am 05:56 Partly Cloudy 59 15 41 5 51 51 S 12 19 29.84 1011 10 16.0934 0 0
6:56 am 06:56 Cloudy with Rain 53 11.7 48 8.9 83 83 S 12 19 29.86 1011 10 16.0934 0.1 2.54
7:56 am 07:56 Cloudy with Rain 52 11.1 49 9.4 89 89 S 10 17 29.86 1011 10 16.0934 0.14 3.556
8:56 am 08:56 Cloudy 52 11.1 48 8.9 86 86 S 10 17 29.87 1011 10 16.0934 0.04 1.016
9:56 am 09:56 Cloudy 54 12.2 49 9.4 83 83 S 6 9 29.86 1011 10 16.0934 0 0
10:56 am 10:56 Cloudy with Light Rain 56 13.3 50 10 81 81 S 12 19 29.83 1010 10 16.0934 0 0.0254
11:56 am 11:56 Cloudy with Light Rain 55 12.8 53 11.7 93 93 S 8 13 29.8 1009 10 16.0934 0 0.0254
12:56 pm 12:56 Mostly Cloudy 59 15 54 12.2 83 83 SSE 14 22 29.75 1007 10 16.0934 0 0.0254
1:56 pm 13:56 Sunny 66 18.9 57 13.9 73 73 S 15 24 29.69 1006 10 16.0934 0 0
2:56 pm 14:56 Mostly Cloudy 70 21.1 59 15 68 68 S 14 22 29.63 1004 10 16.0934 0 0
3:56 pm 15:56 Cloudy 70 21.1 57 13.9 64 64 S 22 35 29.58 1002 10 16.0934 0 0
4:56 pm 16:56 Cloudy 70 21.1 57 13.9 64 64 S 23 37 29.56 1001 10 16.0934 0 0
5:30 pm 17:30 Cloudy with Thunderstorms 68 20 57 14 69 69 S 23 37 29.5 999 10 16.0934 0.01 0.254
5:54 pm 17:54 Cloudy with Rain 64 18 61 16 88 88 W 21 33 29.57 1001 6 9.65604 0.1 2.54
5:56 pm 17:56 Cloudy with Heavy Rain 64 17.8 60 15.6 87 87 W 17 28 29.58 1002 6 9.65604 0.11 2.794
6:03 pm 18:03 Cloudy with Light Rain 64 18 61 16 88 88 SSW 23 37 29.54 1000 9 14.48406 0.01 0.254
6:17 pm 18:17 Partly Cloudy 64 18 61 16 88 88 S 16 26 29.55 1001 10 16.0934 0.01 0.254
6:42 pm 18:42 Mostly Cloudy with Nearby Thunderstorms 64 18 61 16 88 88 S 16 26 29.55 1001 9 14.48406 0.03 0.762
6:56 pm 18:56 Cloudy with Light Rain 64 17.8 61 16.1 90 90 SSW 14 22 29.57 1001 10 16.0934 0.03 0.762
7:06 pm 19:06 Cloudy with Nearby Thunderstorms 63 17 61 16 94 94 SSW 12 19 29.55 1001 10 16.0934 0 0.0254
7:35 pm 19:35 Cloudy with Light Rain 63 17 61 16 94 94 SSW 18 30 29.56 1001 4 6.43736 0.07 1.778
7:47 pm 19:47 Cloudy 63 17 61 16 94 94 S 13 20 29.56 1001 10 16.0934 0.07 1.778
7:56 pm 19:56 Cloudy 62 16.7 61 16.1 96 96 S 14 22 29.59 1002 10 16.0934 0.07 1.778
8:56 pm 20:56 Partly Cloudy 62 16.7 60 15.6 93 93 SSW 13 20 29.61 1003 10 16.0934 0 0
9:56 pm 21:56 Clear 62 16.7 59 15 90 90 SSW 15 24 29.62 1003 10 16.0934 0 0
10:56 pm 22:56 Clear 61 16.1 52 11.1 72 72 WSW 20 31 29.65 1004 10 16.0934 0 0
11:22 pm 23:22 Clear 54 12 48 9 82 82 WNW 15 24 29.69 1006 10 16.0934 0 0
11:56 pm 23:56 Clear 53 11.7 47 8.3 80 80 W 13 20 29.71 1006 10 16.0934 0 0

Powered by AerisWeather